| time (UTC) | temp F | wind direction | speed MPH | gust MPH | rain 1hr in | rain 24hr in | rain mn in | humidity % | barometer mb |
| 20260906093018 | 73 | 24 | 0.0 | 2.0 | 0.00 | 0.37 | 0.00 | 96 | 1011.5 |
| 20260906092015 | 73 | 21 | 0.0 | 3.0 | 0.00 | 0.37 | 0.00 | 97 | 1011.4 |
| 20260906091018 | 73 | 12 | 0.0 | 1.0 | 0.00 | 0.37 | 0.00 | 96 | 1011.3 |
| 20260906090015 | 73 | 302 | 0.0 | 1.0 | 0.00 | 0.37 | 0.00 | 96 | 1011.4 |
| 20260906085015 | 73 | 308 | 0.0 | 2.0 | 0.00 | 0.37 | 0.00 | 96 | 1011.3 |
| 20260906084015 | 73 | 301 | 0.0 | 1.0 | 0.00 | 0.37 | 0.00 | 96 | 1011.2 |
| 20260906083016 | 73 | 305 | 0.0 | 1.0 | 0.00 | 0.37 | 0.00 | 96 | 1011.2 |
| 20260906082015 | 73 | 17 | 0.0 | 2.0 | 0.00 | 0.37 | 0.00 | 96 | 1011.1 |
| 20260906081016 | 73 | 22 | 0.0 | 1.0 | 0.00 | 0.37 | 0.00 | 96 | 1011.3 |
| 20260906080017 | 73 | 248 | 0.0 | 1.0 | 0.00 | 0.37 | 0.00 | 96 | 1011.2 |
| 20260906075016 | 73 | 27 | 0.0 | 1.0 | 0.00 | 0.37 | 0.00 | 96 | 1011.2 |
| 20260906074016 | 73 | 32 | 0.0 | 2.0 | 0.00 | 0.37 | 0.00 | 96 | 1011.3 |
| 20260906073017 | 73 | 29 | 0.0 | 2.0 | 0.00 | 0.37 | 0.00 | 96 | 1011.4 |
| 20260906072017 | 74 | 24 | 0.0 | 1.0 | 0.00 | 0.37 | 0.00 | 96 | 1011.5 |
| 20260906071017 | 74 | 20 | 0.0 | 2.0 | 0.00 | 0.37 | 0.00 | 96 | 1011.6 |
| 20260906070017 | 74 | 19 | 0.0 | 4.0 | 0.00 | 0.37 | 0.00 | 96 | 1011.7 |
| 20260906065017 | 74 | 13 | 0.0 | 3.0 | 0.00 | 0.37 | 0.00 | 96 | 1011.7 |
| 20260906064017 | 74 | 41 | 0.0 | 2.0 | 0.00 | 0.37 | 0.00 | 96 | 1011.7 |
| 20260906063017 | 75 | 36 | 1.0 | 3.0 | 0.00 | 0.37 | 0.00 | 95 | 1011.9 |
| 20260906062015 | 75 | 316 | 1.0 | 3.0 | 0.00 | 0.37 | 0.00 | 95 | 1012.1 |
| 20260906061015 | 75 | 319 | 1.0 | 2.0 | 0.00 | 0.37 | 0.00 | 95 | 1012.2 |
| 20260906060016 | 75 | 321 | 1.0 | 3.0 | 0.00 | 0.37 | 0.00 | 94 | 1012.4 |
| 20260906055015 | 75 | 312 | 1.0 | 2.0 | 0.00 | 0.37 | 0.00 | 94 | 1012.5 |
| 20260906054015 | 75 | 325 | 1.0 | 2.0 | 0.00 | 0.37 | 0.00 | 95 | 1012.6 |
| 20260906053016 | 76 | 313 | 1.0 | 2.0 | 0.00 | 0.37 | 0.00 | 96 | 1012.7 |
| 20260906052016 | 76 | 327 | 1.0 | 3.0 | 0.00 | 0.37 | 0.00 | 96 | 1012.8 |
| 20260906051016 | 76 | 301 | 1.0 | 3.0 | 0.00 | 0.37 | 0.00 | 95 | 1012.8 |
| 20260906050016 | 75 | 336 | 0.0 | 2.0 | 0.00 | 0.37 | 0.00 | 95 | 1012.9 |
| 20260906045016 | 75 | 244 | 0.0 | 1.0 | 0.00 | 0.37 | 0.00 | 95 | 1012.8 |
| 20260906044016 | 76 | 0.0 | 0.0 | 0.12 | 0.37 | 0.00 | 95 | 1012.8 | |
| 20260906043016 | 76 | 90 | 0.0 | 1.0 | 0.34 | 0.37 | 0.00 | 94 | 1012.9 |
| 20260906042016 | 76 | 169 | 0.0 | 2.0 | 0.36 | 0.37 | 0.00 | 93 | 1012.8 |
| 20260906041017 | 76 | 201 | 0.0 | 2.0 | 0.36 | 0.37 | 0.00 | 94 | 1012.9 |
| 20260906040018 | 76 | 58 | 1.0 | 4.0 | 0.36 | 0.37 | 0.00 | 94 | 1012.8 |
| 20260906035017 | 76 | 171 | 2.0 | 7.0 | 0.36 | 0.36 | 0.36 | 93 | 1012.8 |
| 20260906034015 | 78 | 270 | 1.0 | 3.0 | 0.24 | 0.25 | 0.25 | 87 | 1013.2 |
| 20260906033015 | 79 | 54 | 2.0 | 6.0 | 0.02 | 0.02 | 0.02 | 76 | 1013.4 |
| 20260906032016 | 79 | 40 | 1.0 | 3.0 | 0.00 | 0.01 | 0.01 | 78 | 1013.4 |
| 20260906031015 | 79 | 71 | 1.0 | 2.0 | 0.00 | 0.01 | 0.01 | 79 | 1013.2 |
| 20260906030016 | 79 | 75 | 0.0 | 2.0 | 0.00 | 0.01 | 0.01 | 79 | 1013.1 |
| 20260906025016 | 78 | 126 | 0.0 | 3.0 | 0.00 | 0.01 | 0.01 | 81 | 1013.1 |
| 20260906024016 | 79 | 219 | 0.0 | 1.0 | 0.00 | 0.01 | 0.01 | 81 | 1013.2 |
| 20260906023017 | 79 | 61 | 0.0 | 2.0 | 0.00 | 0.01 | 0.01 | 79 | 1013.4 |
| 20260906022016 | 79 | 358 | 0.0 | 1.0 | 0.00 | 0.01 | 0.01 | 79 | 1013.4 |
| 20260906021017 | 79 | 52 | 0.0 | 1.0 | 0.00 | 0.01 | 0.01 | 78 | 1013.3 |
| 20260906020017 | 79 | 59 | 0.0 | 1.0 | 0.00 | 0.01 | 0.01 | 77 | 1013.3 |
| 20260906015017 | 80 | 202 | 0.0 | 1.0 | 0.00 | 0.01 | 0.01 | 76 | 1013.3 |
| 20260906014017 | 80 | 210 | 0.0 | 2.0 | 0.00 | 0.01 | 0.01 | 75 | 1013.2 |
| 20260906013017 | 80 | 213 | 0.0 | 2.0 | 0.00 | 0.01 | 0.01 | 73 | 1013.1 |
| 20260906012017 | 80 | 232 | 0.0 | 1.0 | 0.00 | 0.01 | 0.01 | 73 | 1013.0 |
| 20260906011018 | 80 | 354 | 1.0 | 2.0 | 0.01 | 0.01 | 0.01 | 73 | 1012.7 |
| 20260906010018 | 80 | 279 | 0.0 | 2.0 | 0.01 | 0.01 | 0.01 | 75 | 1012.6 |
| 20260906005018 | 80 | 77 | 0.0 | 2.0 | 0.01 | 0.01 | 0.01 | 75 | 1012.5 |
| 20260906004015 | 81 | 30 | 1.0 | 3.0 | 0.01 | 0.01 | 0.01 | 75 | 1012.6 |
| 20260906003015 | 82 | 48 | 1.0 | 3.0 | 0.01 | 0.01 | 0.01 | 74 | 1012.3 |
| 20260906002015 | 84 | 80 | 1.0 | 3.0 | 0.00 | 0.00 | 0.00 | 66 | 1012.2 |
| 20260906001016 | 84 | 347 | 1.0 | 2.0 | 0.00 | 0.00 | 0.00 | 64 | 1012.4 |
| 20260906000016 | 84 | 82 | 1.0 | 3.0 | 0.00 | 0.00 | 0.00 | 65 | 1012.1 |
| 20260905235016 | 84 | 69 | 0.0 | 2.0 | 0.00 | 0.00 | 0.00 | 64 | 1012.1 |
| 20260905234016 | 84 | 121 | 0.0 | 1.0 | 0.00 | 0.00 | 0.00 | 63 | 1012.2 |
| 20260905233016 | 84 | 296 | 0.0 | 1.0 | 0.00 | 0.00 | 0.00 | 63 | 1012.2 |
| 20260905232017 | 85 | 56 | 0.0 | 2.0 | 0.00 | 0.00 | 0.00 | 62 | 1012.1 |
| 20260905231017 | 85 | 214 | 0.0 | 2.0 | 0.00 | 0.00 | 0.00 | 62 | 1012.2 |
| 20260905230016 | 86 | 85 | 0.0 | 2.0 | 0.00 | 0.00 | 0.00 | 60 | 1011.9 |
| 20260905225017 | 88 | 97 | 1.0 | 5.0 | 0.00 | 0.00 | 0.00 | 58 | 1012.0 |
| 20260905224017 | 89 | 98 | 1.0 | 6.0 | 0.00 | 0.00 | 0.00 | 58 | 1012.1 |
| 20260905223017 | 92 | 59 | 2.0 | 6.0 | 0.00 | 0.00 | 0.00 | 57 | 1011.7 |
| 20260905222017 | 96 | 30 | 2.0 | 6.0 | 0.00 | 0.00 | 0.00 | 51 | 1011.3 |
| 20260905221017 | 97 | 20 | 0.0 | 1.0 | 0.00 | 0.00 | 0.00 | 49 | 1011.0 |
| 20260905220017 | 99 | 146 | 0.0 | 2.0 | 0.00 | 0.00 | 0.00 | 46 | 1010.9 |
| 20260905215015 | 98 | 240 | 0.0 | 2.0 | 0.00 | 0.00 | 0.00 | 47 | 1010.7 |
| 20260905214018 | 98 | 246 | 0.0 | 1.0 | 0.00 | 0.00 | 0.00 | 48 | 1010.6 |
| 20260905213015 | 98 | 208 | 1.0 | 4.0 | 0.00 | 0.00 | 0.00 | 48 | 1010.5 |
| 20260905212017 | 98 | 289 | 3.0 | 5.0 | 0.00 | 0.00 | 0.00 | 46 | 1010.5 |
| 20260905211015 | 98 | 323 | 1.0 | 3.0 | 0.00 | 0.00 | 0.00 | 44 | 1010.8 |
| 20260905210016 | 98 | 15 | 1.0 | 3.0 | 0.00 | 0.00 | 0.00 | 46 | 1010.9 |
| 20260905205016 | 98 | 306 | 2.0 | 5.0 | 0.00 | 0.00 | 0.00 | 47 | 1010.8 |
| 20260905204016 | 98 | 291 | 0.0 | 2.0 | 0.00 | 0.00 | 0.00 | 45 | 1010.8 |
| 20260905203017 | 98 | 267 | 1.0 | 3.0 | 0.00 | 0.00 | 0.00 | 46 | 1010.7 |
| 20260905202017 | 97 | 266 | 1.0 | 3.0 | 0.00 | 0.00 | 0.00 | 46 | 1010.7 |
| 20260905201016 | 97 | 353 | 1.0 | 4.0 | 0.00 | 0.00 | 0.00 | 46 | 1010.9 |
| 20260905200017 | 98 | 298 | 2.0 | 5.0 | 0.00 | 0.00 | 0.00 | 46 | 1010.9 |
| 20260905195017 | 98 | 322 | 2.0 | 5.0 | 0.00 | 0.00 | 0.00 | 46 | 1011.1 |
| 20260905194017 | 98 | 51 | 1.0 | 5.0 | 0.00 | 0.00 | 0.00 | 46 | 1011.2 |
| 20260905193017 | 97 | 69 | 1.0 | 4.0 | 0.00 | 0.00 | 0.00 | 48 | 1011.1 |
| 20260905192017 | 96 | 75 | 2.0 | 4.0 | 0.00 | 0.00 | 0.00 | 49 | 1011.4 |
| 20260905191018 | 96 | 62 | 1.0 | 3.0 | 0.00 | 0.00 | 0.00 | 49 | 1011.5 |
| 20260905190018 | 95 | 104 | 1.0 | 2.0 | 0.00 | 0.00 | 0.00 | 51 | 1011.9 |
| 20260905185017 | 96 | 101 | 1.0 | 3.0 | 0.00 | 0.00 | 0.00 | 49 | 1012.0 |
| 20260905184018 | 96 | 117 | 2.0 | 6.0 | 0.00 | 0.00 | 0.00 | 47 | 1011.9 |
| 20260905183018 | 96 | 114 | 1.0 | 3.0 | 0.00 | 0.00 | 0.00 | 50 | 1012.0 |
| 20260905182015 | 96 | 84 | 1.0 | 4.0 | 0.00 | 0.00 | 0.00 | 52 | 1012.1 |
| 20260905181016 | 95 | 341 | 1.0 | 4.0 | 0.00 | 0.00 | 0.00 | 52 | 1012.3 |
| 20260905180016 | 95 | 332 | 2.0 | 5.0 | 0.00 | 0.00 | 0.00 | 52 | 1012.3 |
| 20260905175016 | 95 | 110 | 2.0 | 3.0 | 0.00 | 0.00 | 0.00 | 52 | 1012.4 |
| 20260905174016 | 94 | 22 | 1.0 | 3.0 | 0.00 | 0.00 | 0.00 | 52 | 1012.6 |
| 20260905173016 | 94 | 102 | 1.0 | 4.0 | 0.00 | 0.00 | 0.00 | 55 | 1012.7 |
| 20260905172016 | 94 | 74 | 2.0 | 5.0 | 0.00 | 0.00 | 0.00 | 56 | 1012.9 |
| 20260905171016 | 93 | 328 | 1.0 | 2.0 | 0.00 | 0.00 | 0.00 | 57 | 1012.9 |
| 20260905170016 | 92 | 277 | 2.0 | 3.0 | 0.00 | 0.00 | 0.00 | 59 | 1013.1 |
| 20260905165017 | 91 | 285 | 1.0 | 4.0 | 0.00 | 0.00 | 0.00 | 61 | 1013.3 |
| 20260905164017 | 91 | 296 | 2.0 | 6.0 | 0.00 | 0.00 | 0.00 | 61 | 1013.5 |
| 20260905163017 | 92 | 312 | 2.0 | 5.0 | 0.00 | 0.00 | 0.00 | 61 | 1013.7 |
| 20260905162017 | 91 | 293 | 3.0 | 6.0 | 0.00 | 0.00 | 0.00 | 61 | 1013.9 |
| 20260905161017 | 91 | 330 | 1.0 | 4.0 | 0.00 | 0.00 | 0.00 | 63 | 1014.0 |
| 20260905160018 | 90 | 203 | 1.0 | 3.0 | 0.00 | 0.00 | 0.00 | 64 | 1014.2 |
| 20260905155018 | 90 | 313 | 2.0 | 4.0 | 0.00 | 0.00 | 0.00 | 65 | 1014.2 |
| 20260905154015 | 89 | 334 | 1.0 | 3.0 | 0.00 | 0.00 | 0.00 | 66 | 1014.4 |
| 20260905153018 | 88 | 299 | 2.0 | 5.0 | 0.00 | 0.00 | 0.00 | 68 | 1014.4 |
| 20260905152015 | 88 | 306 | 2.0 | 5.0 | 0.00 | 0.00 | 0.00 | 68 | 1014.4 |
| 20260905151015 | 88 | 298 | 2.0 | 5.0 | 0.00 | 0.00 | 0.00 | 68 | 1014.5 |
| 20260905150016 | 87 | 336 | 1.0 | 3.0 | 0.00 | 0.00 | 0.00 | 71 | 1014.8 |
| 20260905145016 | 87 | 55 | 2.0 | 3.0 | 0.00 | 0.00 | 0.00 | 70 | 1015.0 |
| 20260905144016 | 85 | 3 | 1.0 | 4.0 | 0.00 | 0.00 | 0.00 | 73 | 1015.1 |
| 20260905143016 | 85 | 302 | 2.0 | 3.0 | 0.00 | 0.00 | 0.00 | 75 | 1015.2 |
| 20260905142016 | 84 | 75 | 1.0 | 3.0 | 0.00 | 0.00 | 0.00 | 78 | 1015.4 |
| 20260905141017 | 83 | 2 | 1.0 | 3.0 | 0.00 | 0.00 | 0.00 | 79 | 1015.5 |
| 20260905140016 | 82 | 320 | 1.0 | 3.0 | 0.00 | 0.00 | 0.00 | 81 | 1015.6 |
| 20260905135017 | 81 | 295 | 2.0 | 8.0 | 0.00 | 0.00 | 0.00 | 82 | 1015.7 |
| 20260905134017 | 80 | 299 | 1.0 | 2.0 | 0.00 | 0.00 | 0.00 | 86 | 1015.4 |
| 20260905133017 | 79 | 284 | 2.0 | 4.0 | 0.00 | 0.00 | 0.00 | 88 | 1014.5 |
| 20260905132017 | 79 | 290 | 2.0 | 5.0 | 0.00 | 0.00 | 0.00 | 89 | 1014.7 |
| 20260905131017 | 78 | 310 | 1.0 | 4.0 | 0.00 | 0.00 | 0.00 | 90 | 1014.6 |
| 20260905130017 | 77 | 302 | 2.0 | 4.0 | 0.00 | 0.00 | 0.00 | 91 | 1014.6 |
| 20260905125018 | 77 | 311 | 1.0 | 2.0 | 0.00 | 0.00 | 0.00 | 92 | 1014.9 |
| 20260905124017 | 77 | 200 | 1.0 | 3.0 | 0.00 | 0.00 | 0.00 | 92 | 1015.2 |
| 20260905123018 | 76 | 208 | 0.0 | 2.0 | 0.00 | 0.00 | 0.00 | 95 | 1014.9 |
| 20260905122018 | 75 | 207 | 1.0 | 3.0 | 0.00 | 0.00 | 0.00 | 98 | 1014.8 |
| 20260905121015 | 74 | 212 | 1.0 | 3.0 | 0.00 | 0.00 | 0.00 | 98 | 1014.5 |
| 20260905120015 | 74 | 210 | 0.0 | 2.0 | 0.00 | 0.00 | 0.00 | 98 | 1014.0 |
| 20260905115016 | 74 | 332 | 0.0 | 1.0 | 0.00 | 0.00 | 0.00 | 98 | 1014.0 |
| 20260905114016 | 73 | 256 | 0.0 | 1.0 | 0.00 | 0.00 | 0.00 | 98 | 1013.8 |
| 20260905113015 | 73 | 218 | 0.0 | 1.0 | 0.00 | 0.00 | 0.00 | 98 | 1013.9 |
| 20260905112016 | 73 | 56 | 0.0 | 1.0 | 0.00 | 0.00 | 0.00 | 98 | 1013.9 |
| 20260905111016 | 73 | 274 | 0.0 | 1.0 | 0.00 | 0.00 | 0.00 | 98 | 1014.0 |
| 20260905110016 | 73 | 307 | 0.0 | 1.0 | 0.00 | 0.00 | 0.00 | 98 | 1013.9 |
| 20260905105017 | 74 | 275 | 0.0 | 1.0 | 0.00 | 0.00 | 0.00 | 98 | 1013.9 |
| 20260905104017 | 74 | 215 | 0.0 | 1.0 | 0.00 | 0.00 | 0.00 | 98 | 1013.9 |
| 20260905103017 | 74 | 310 | 0.0 | 2.0 | 0.00 | 0.00 | 0.00 | 98 | 1013.8 |
| 20260905102017 | 74 | 306 | 1.0 | 2.0 | 0.00 | 0.00 | 0.00 | 98 | 1013.5 |
| 20260905101017 | 74 | 256 | 0.0 | 1.0 | 0.00 | 0.00 | 0.00 | 98 | 1013.4 |
| 20260905100017 | 74 | 243 | 0.0 | 1.0 | 0.00 | 0.00 | 0.00 | 98 | 1013.3 |
| 20260905095017 | 74 | 257 | 0.0 | 1.0 | 0.00 | 0.00 | 0.00 | 98 | 1013.3 |
| 20260905094017 | 74 | 236 | 0.0 | 1.0 | 0.00 | 0.00 | 0.00 | 98 | 1013.3 |